Regional Weather Roundup
Issued by NWS

Home | Current Version | Previous Version | Graphics & Text | Print | Product List | Glossary On
Versions: 1 2 3 4 5 6 7 8 9 10 11 12 13 14 15 16 17 18 19 20 21 22 23 24 25 26 27 28 29 30 31 32 33 34 35 36 37 38 39 40 41 42 43 44 45 46 47 48 49 50
000
ASUS43 KOAX 271810
RWRNE

WEATHER ROUNDUP FOR NEBRASKA
NATIONAL WEATHER SERVICE OMAHA NE
1200 PM CST SAT DEC 27 2014

NOTES: SATELLITE DATA IS BEING USED TO AUGMENT CLOUD COVER ABOVE
       12000 FEET.
       "FAIR" INDICATES FEW OR NO CLOUDS BELOW 12,000 FEET WITH NO
       SIGNIFICANT WEATHER AND/OR OBSTRUCTIONS TO VISIBILITY.

  * THESE STATIONS DO NOT REPORT WEATHER SUCH AS RAIN...SNOW OR FOG.

NEZ001>004-019>022-054>056-271900-
NEBRASKA PANHANDLE

CITY           SKY/WX    TMP DP  RH WIND       PRES   REMARKS
SCOTTSBLUFF    SUNNY     12   6  77 NW7       30.17F WCI   1
6HR MIN TEMP:  -3; 6HR MAX TEMP:  12;

ALLIANCE       SUNNY     14   7  73 W6        30.14F WCI   5
6HR MIN TEMP:  -8; 6HR MAX TEMP:  14;

CHADRON        SUNNY     16  10  77 SW7       30.15F WCI   6
6HR MIN TEMP:   2; 6HR MAX TEMP:  17;

KIMBALL        SUNNY     15   5  67 SW6       30.11F WCI   6
SIDNEY         SUNNY     19   8  62 W12       30.17F WCI   7
6HR MIN TEMP:  -2; 6HR MAX TEMP:  19;

$$

NEZ057>060-069>072-079>082-271900-
SOUTHWEST NEBRASKA

CITY           SKY/WX    TMP DP  RH WIND       PRES   REMARKS
NORTH PLATTE   SUNNY     18  13  80 W10       30.22F WCI   6
6HR MIN TEMP:  -9; 6HR MAX TEMP:  18;

IMPERIAL       SUNNY     17   9  70 NW9       30.22F WCI   6
6HR MIN TEMP:   3; 6HR MAX TEMP:  17;

LEXINGTON      SUNNY     20  15  79 NW8       30.25F WCI  11
MCCOOK         SUNNY     19  12  74 W10       30.26F WCI   7
6HR MIN TEMP:   6; 6HR MAX TEMP:  19;

OGALLALA       SUNNY     12   6  77 W9        30.21F WCI   0
$$

NEZ005>010-023>029-035>040-094-271900-
NORTH CENTRAL NEBRASKA

CITY           SKY/WX    TMP DP  RH WIND       PRES   REMARKS
VALENTINE      SUNNY     18  10  71 SW7       30.17F WCI   9
6HR MIN TEMP:  -2; 6HR MAX TEMP:  18; 6HR PCP: TRACE;

AINSWORTH      SUNNY     18  13  79 W8        30.17F WCI   8
BROKEN BOW     SUNNY     20  12  71 W9        30.21F WCI   9
6HR MIN TEMP:   8; 6HR MAX TEMP:  20;

O`NEILL        SUNNY     17  13  83 W5        30.20F WCI  10
ORD            SUNNY     20  12  71 NW10      30.22F WCI   9
6HR MIN TEMP:   5; 6HR MAX TEMP:  20;

THEDFORD       SUNNY     23  15  71 W9        30.18F WCI  13
$$

NEZ041-046>049-061>064-073>077-083>087-271900-
SOUTH CENTRAL NEBRASKA

CITY           SKY/WX    TMP DP  RH WIND       PRES   REMARKS
GRAND ISLAND   SUNNY     21  14  74 NW10      30.25F WCI  10
6HR MIN TEMP:   4; 6HR MAX TEMP:  21;

AURORA         SUNNY     22  16  79 W12       30.25S WCI  10
HASTINGS       SUNNY     21  13  71 NW13      30.24F WCI   9
6HR MIN TEMP:   8; 6HR MAX TEMP:  21;

HEBRON         SUNNY     25  17  72 NW8       30.28F WCI  16
HOLDREGE       SUNNY     20  13  75 W9        30.25S WCI   9
KEARNEY *      SUNNY     19  12  73 W13       30.25F WCI   7
YORK           SUNNY     21  16  79 NW12      30.24F WCI   9
$$

NEZ011>018-030>034-042>045-271900-
NORTHEAST NEBRASKA

CITY           SKY/WX    TMP DP  RH WIND       PRES   REMARKS
NORFOLK        SUNNY     20  13  74 W10       30.22F WCI   9
6HR MIN TEMP:  11; 6HR MAX TEMP:  20;

ALBION         SUNNY     22  13  69 W8        30.22F WCI  12
BLAIR          SUNNY     23  16  75 W10       30.23F WCI  12
COLUMBUS *     SUNNY     19  10  68 W10       30.26F WCI   8
FREMONT        SUNNY     24  17  74 W10       30.26S WCI  13
TEKAMAH        SUNNY     22  15  75 NW10      30.25F WCI  11
6HR MIN TEMP:  18; 6HR MAX TEMP:  23;

WAYNE          SUNNY     18  12  75 NW10      30.24S WCI   7
$$

NEZ050>053-065>068-078-088>093-271900-
SOUTHEAST NEBRASKA

CITY           SKY/WX    TMP DP  RH WIND       PRES   REMARKS
LINCOLN        SUNNY     25  17  72 NW10      30.28F WCI  15
6HR MIN TEMP:  18; 6HR MAX TEMP:  25;

OMAHA EPPLEY   PTSUNNY   26  18  71 NW10      30.26F WCI  16
6HR MIN TEMP:  21; 6HR MAX TEMP:  26; 6HR PCP: TRACE;

BEATRICE       SUNNY     25  18  73 NW10      30.27F WCI  15
FALLS CITY     CLOUDY    28  19  69 NW13      30.26F WCI  17
6HR MIN TEMP:  25; 6HR MAX TEMP:  28;

NEBRASKA CITY  PTSUNNY   26  20  79 NW10      30.25F WCI  16
PLATTSMOUTH    MOSUNNY   24  19  78 NW13      30.24F WCI  13
$$

NEZ044-045-051>053-067-271900-
OMAHA AREA

CITY           SKY/WX    TMP DP  RH WIND       PRES   REMARKS
OMAHA EPPLEY   PTSUNNY   26  18  71 NW10      30.26F WCI  16
6HR MIN TEMP:  21; 6HR MAX TEMP:  26; 6HR PCP: TRACE;

BLAIR          SUNNY     23  16  75 W10       30.23F WCI  12
FREMONT        SUNNY     24  17  74 W10       30.26S WCI  13
MILLARD        SUNNY     25  17  72 NW8       30.26F WCI  16
OFFUTT AFB     MOSUNNY   26  18  72 NW10      30.24F WCI  15
PLATTSMOUTH    MOSUNNY   24  19  78 NW13      30.24F WCI  13
WAHOO          FAIR      23  15  71 NW12      30.26F WCI  12
$$



USA.gov is the U.S. government's official web portal to all federal, state and local government web resources and services.